Location: Barrialito
(10.1025°N, 66.8154°W)
Time: 16:02:52
(UTC+00:00)

YAOGAN 1 - Pass Details

Date: 10 September 2024
Orbit: 609 x 612 km, 97.8° (Epoch: 11 October)

Event Time Altitude Azimuth Distance (km) Brightness Sun altitude
Rises 23:04:46 0° 154° (SSE) 2,873 5.7 -9.2°
Reaches altitude 10° 23:07:03 10° 147° (SSE) 1,969 4.8 -9.8°
Maximum altitude 23:11:03 40° 77° (ENE) 913 3.0 -10.8°
Drops below altitude 10° 23:15:05 10° 8° (N) 1,979 5.1 -11.8°
Sets 23:17:20 0° 1° (N) 2,871 6.1 -12.3°
